Flag for U.S.A. Weather past 2 weeks in South Bend, Indiana, U.S.A.

Now
66 °F

Fog.


Feels Like: 66 °F
Forecast: 65 / 79 °F
Wind: 3 mph from West

Location: Michiana Regional Airport

Current Time: Aug 3, 2015 at 9:36:36 AM

Latest Report: Aug 3, 2015 at 8:54 AM


Visibility: 1 mi

Pressure: 29.81 "Hg

Humidity: 96%

Dew point: 65 °F

Location of South BendLocation

Historic Weather in South Bend — Graph

°F

South Bend temperature yesterday

Maximum temperature yesterday: 93 °F (at 3:54 PM)
Minimum temperature yesterday: 66 °F (at 6:54 AM)
Average temperature yesterday: 80 °F

Past Weeks' High & Low Weather Summary

 TemperatureHumidityPressure
High93 °F (Aug 2, 3:54 PM)97% (Aug 3, 6:59 AM)30.06 "Hg (Aug 3, 6:59 AM)
Low59 °F (Jul 23, 5:54 AM)31% (Aug 1, 1:54 PM)29.68 "Hg (Aug 2, 7:54 PM)
Average75 °F66%29.93 "Hg
* Reported Jul 19 7:54 AM — Aug 3 7:59 AM, South Bend, Weather by CustomWeather, © 2015

Note: Actual official high and low records may vary slightly from our data, if they occured in-between our weather recording intervals... More about our weather records

Advertising

South Bend weather history for previous 24 hours

 ConditionsComfort  
Time TempWeatherWind HumidityBarometerVisibility
7:59 AM
Mon, Aug 3
65 °FFog.No wind94%29.82 "Hg2 mi
6:59 AM64 °FFog.5 mph97%29.80 "Hg2 mi
5:54 AM65 °FPassing clouds.3 mph94%29.75 "Hg7 mi
4:54 AM65 °FPassing clouds.5 mph94%29.75 "Hg10 mi
3:54 AM66 °FPassing clouds.5 mph90%29.75 "Hg10 mi
2:54 AM66 °FClear.No wind90%29.73 "Hg10 mi
1:54 AM66 °FPartly cloudy.8 mph90%29.74 "Hg10 mi
1:01 AM65 °FLight rain. Fog.13 mph91%29.74 "Hg4 mi
11:54 PM
Sun, Aug 2
76 °FPassing clouds.29 mph64%29.76 "Hg10 mi
10:54 PM83 °FPassing clouds.15 mph61%29.69 "Hg10 mi
9:54 PM83 °FPartly sunny.14 mph61%29.68 "Hg10 mi
8:54 PM85 °FSunny.21 mph51%29.68 "Hg10 mi
7:54 PM88 °FSunny.16 mph48%29.68 "Hg10 mi
6:54 PM89 °FSunny.20 mph43%29.70 "Hg10 mi
5:54 PM87 °FSunny.17 mph45%29.70 "Hg10 mi
4:54 PM91 °FSunny.24 mph36%29.74 "Hg10 mi
3:54 PM93 °FSunny.24 mph34%29.76 "Hg10 mi
2:54 PM92 °FSunny.25 mph40%29.79 "Hg10 mi
1:54 PM90 °FSunny.21 mph45%29.81 "Hg10 mi
12:54 PM88 °FSunny.17 mph50%29.83 "Hg10 mi
11:54 AM84 °FSunny.20 mph61%29.84 "Hg10 mi
10:54 AM80 °FSunny.15 mph67%29.87 "Hg10 mi
9:54 AM76 °FSunny.15 mph72%29.88 "Hg10 mi
Weather by CustomWeather, © 2015

See weather overviewHow to use our weather pages